Погода в Каменске

Россия / Иркутская область     56°10′24″N   99°07′18″E
темп.,
°C
ветер,
м/с
пор.,
м/с
влажн.,
%
обл.,
%
осадки,
мм/ч
давл.,
гПа
погр.,
м
24 июля, сб
сб2423:00+16юв11771 0.0 101211
02:00+14в11825 0.0 101211
05:00+13в11840 0.0 101213
08:00+18в24620 0.0 1012212
11:00+25вюв484282 0.0 10111457
14:00+28вюв5830100 0.0 10102133
17:00+28вюв57310 0.0 10092092
20:00+25в39460 0.0 1010442
25 июля, вс
вс2523:00+18всв22660 0.0 101011
02:00+15всв117125 0.0 101116
05:00+15всв1171100 0.0 101014
08:00+20в25580 0.0 1010188
11:00+27вюв47360 0.0 10091356
14:00+30в57284 0.0 10082347
17:00+30вюв46275 0.0 10072418
20:00+25в244610 0.0 100792
26 июля, пн
пн2623:00+19всв1159100 0.0 100811
02:00+17всв11645 0.0 100712
05:00+16всв117086 0.0 100611
08:00+20в25595 0.0 1007211
11:00+27вюв36366 0.0 10051028
14:00+29вюв452998 0.0 10032248
17:00+30вюв342951 0.0 10022315
20:00+25в224992 0.0 100228
27 июля, вт
вт2723:00+19в116063 0.0 100211
02:00+17в227285 0.0 100213
05:00+15в117714 0.0 100211
08:00+20вюв27600 0.0 1003264
11:00+26юв47410 0.0 10021164
14:00+30юв47330 0.0 10002177
17:00+31ююв34320 0.0 9992768
20:00+26зсз5956100 0.0 1000443
28 июля, ср
ср2823:00+20зсз3986100 0.0 1002446
02:00+17зсз4897100 0.3 1004404
05:00+16сз4995100 0.1 1005535
08:00+12зсз51093100 0.1 1007549
11:00+13зсз4884100 0.0 1009647
14:00+13зсз4778100 0.1 1010771
17:00+14зсз4674100 0.0 1011954
20:00+12зсз4876100 0.1 1012683